Simultaneous Nadir Overpasses (SNOs) Predictions

Prediction of SNOs between AQUA and GOES-15 Satellite Orbit:

Table of predicted SNOs for the next 14.0 days since TLE Epoch: 12/1/2017
Index Date Time (AQUA) AQUA Lat,Lon GOES-15 Lat,Lon Distance(km) Time Diff (sec)
1 12/02/2017 10:19:40 -0.89,-131.17 0.01,-135.37 477.78 80
2 12/02/2017 22:41:04 -0.21,-136.36 0.00,-135.28 122.02 80
3 12/04/2017 22:28:52 0.38,-133.39 -0.00,-135.31 217.46 80
4 12/05/2017 10:50:09 0.66,-138.56 -0.01,-135.41 358.46 80
5 12/07/2017 10:37:58 0.01,-135.61 -0.01,-135.43 19.91 80
6 12/09/2017 10:25:46 -0.58,-132.64 -0.01,-135.45 318.54 80
7 12/09/2017 22:47:10 -0.50,-137.83 0.02,-135.36 281.63 80
8 12/11/2017 22:34:58 0.10,-134.87 0.02,-135.37 56.62 80
9 12/13/2017 22:22:47 0.77,-131.92 0.02,-135.38 394.47 80
10 12/14/2017 10:44:03 0.34,-137.07 -0.03,-135.48 181.89 80




NCC Satellite Simultaneous Nadir Overpasses (SNOs) Prediction Service
